Home > Weather > Bălți > Past weeks

Flag for Moldova Weather for the Past 2 Weeks in Bălți, Moldova

Now
43 °F

Quite cool.


Feels Like: 35 °F
Forecast: 31 / 48 °F
Wind: 17 mph from West

Location: Baltsi-Leadoveni - The North of Moldova

Current Time: Feb 11, 2016 at 12:53:31 PM

Latest Report: Feb 11, 2016 at 12:30 PM


Visibility: N/A

Pressure: 29.53 "Hg

Humidity: 66%

Dew point: 32 °F

Location of BălțiLocation

Historic Weather in Bălți — Graph

°F

Bălți Temperature Yesterday

Maximum temperature yesterday: 48 °F (at 2:30 PM)
Minimum temperature yesterday: 34 °F (at 6:30 AM)
Average temperature yesterday: 43 °F

High & Low Weather Summary for the Past Weeks

 TemperatureHumidityPressure
High50 °F (Feb 3, 2:30 PM)100% (Jan 30, 1:00 AM)30.33 "Hg (Jan 30, 1:00 AM)
Low25 °F (Feb 7, 5:30 AM)48% (Feb 6, 2:30 PM)29.36 "Hg (Feb 11, 2:00 AM)
Average37 °F82%30.03 "Hg
* Reported Jan 27 11:00 AM — Feb 11 11:30 AM, Bălți, Weather by CustomWeather, © 2016

Note: Actual official high and low records may vary slightly from our data, if they occured in-between our weather recording intervals... More about our weather records

Advertising

Bălți Weather History for the Previous 24 Hours

 ConditionsComfort  
Time TempWeatherWind HumidityBarometerVisibility
11:30 AM
Thu, Feb 11
43 °FQuite cool.17 mph71%29.53 "HgN/A
11:00 AM45 °FQuite cool.18 mph57%29.50 "HgN/A
10:30 AM45 °FQuite cool.16 mph61%29.47 "HgN/A
10:00 AM43 °FQuite cool.13 mph66%29.47 "HgN/A
9:30 AM41 °FQuite cool.14 mph70%29.45 "HgN/A
9:00 AM41 °FQuite cool.15 mph70%29.45 "HgN/A
8:00 AM41 °FQuite cool.12 mph93%29.42 "HgN/A
7:30 AM43 °FQuite cool.9 mph93%29.39 "HgN/A
7:00 AM43 °FQuite cool.14 mph93%29.39 "HgN/A
6:30 AM43 °FQuite cool.12 mph93%29.39 "Hg3 mi
6:00 AM43 °FQuite cool.12 mph100%29.39 "Hg3 mi
5:30 AM43 °FQuite cool.14 mph100%29.36 "Hg2 mi
5:00 AM45 °FQuite cool.16 mph93%29.36 "Hg2 mi
4:30 AM45 °FQuite cool.16 mph93%29.36 "Hg4 mi
4:00 AM45 °FQuite cool.18 mph93%29.36 "HgN/A
3:30 AM45 °FQuite cool.15 mph93%29.36 "Hg5 mi
3:00 AM45 °FQuite cool.14 mph93%29.36 "Hg4 mi
2:00 AM45 °FQuite cool.13 mph93%29.36 "Hg2 mi
1:30 AM45 °FQuite cool.13 mph93%29.39 "Hg2 mi
1:00 AM45 °FQuite cool.13 mph93%29.39 "Hg2 mi
12:30 AM45 °FQuite cool.16 mph93%29.39 "Hg3 mi
12:00 AM45 °FQuite cool.16 mph93%29.39 "Hg6 mi
11:30 PM
Wed, Feb 10
45 °FQuite cool.14 mph93%29.42 "Hg4 mi
11:00 PM45 °FQuite cool.14 mph93%29.42 "Hg3 mi
10:30 PM45 °FQuite cool.16 mph93%29.42 "HgN/A
10:00 PM46 °FCool.17 mph87%29.42 "HgN/A
9:30 PM46 °FCool.16 mph87%29.42 "HgN/A
9:00 PM48 °FCool.20 mph82%29.42 "HgN/A
8:30 PM48 °FCool.20 mph82%29.45 "HgN/A
8:00 PM46 °FCool.16 mph87%29.45 "HgN/A
7:30 PM46 °FCool.17 mph87%29.45 "HgN/A
7:00 PM46 °FCool.18 mph87%29.45 "HgN/A
6:30 PM46 °FCool.20 mph82%29.45 "HgN/A
6:00 PM46 °FCool.17 mph82%29.45 "HgN/A
5:30 PM46 °FCool.15 mph82%29.47 "HgN/A
5:00 PM46 °FCool.17 mph82%29.47 "HgN/A
4:30 PM46 °FOvercast.17 mph82%29.47 "HgN/A
4:00 PM46 °FPartly sunny.18 mph82%29.50 "HgN/A
3:30 PM46 °FPartly sunny.17 mph82%29.50 "HgN/A
3:00 PM46 °FPartly sunny.20 mph82%29.53 "HgN/A
2:30 PM48 °FScattered clouds.17 mph71%29.53 "HgN/A
2:00 PM46 °FSunny.20 mph76%29.53 "Hg10 mi
1:30 PM46 °FSunny.21 mph76%29.56 "Hg10 mi
1:00 PM46 °FSunny.23 mph76%29.56 "Hg10 mi
12:30 PM46 °FSunny.20 mph76%29.59 "Hg10 mi
12:00 PM46 °FSunny.18 mph71%29.62 "Hg10 mi
Weather by CustomWeather, © 2016

See weather overviewHow to use our weather pages